Location: Asarope
(8.2500°N, 4.4833°E)
Time: 14:56:10
(UTC+00:00)

Delta 2 Rocket - Pass Details

Date: 07 June 2020
Orbit: 416 x 807 km, 35.6° (Epoch: 08 July)

Event Time Altitude Azimuth Distance (km) Brightness Sun altitude
Exits shadow 04:53:31 - 245° (WSW) 2,361 5.8 -7.6°
Reaches altitude 10° 04:53:44 10° 246° (WSW) 2,283 5.8 -7.5°
Maximum altitude 04:59:07 58° 324° (NW) 917 4.4 -6.3°
Drops below altitude 10° 05:04:43 10° 43° (NE) 2,374 7.9 -5.1°
Sets 05:07:17 0° 47° (NE) 3,299 8.9 -4.5°
